SCP
1 1 1 1 1 0 0 0 0 0 0 0 0 0 0 0 0 1 1 0 0 0 1 2 3 2 2 1 1 1 1 1 1 1 1 1 1 0 1 1 1 1 1 1 1 1 1 1 1
1 1 1 1 0 0 0 0 0 0 0 0 0 0 0 0 0 1 1 0 0 0 1 1 2 2 2 1 1 1 1 1 1 1 1 1 1 1 1 1 1 1 1 1 1 1 1 1 1
0 0 1 1 0 0 0 0 0 0 0 0 0 0 0 0 0 1 1 0 0 0 0 1 2 2 2 1 1 1 1 0 0 1 1 1 1 1 1 1 1 1 1 1 1 1 1 1 1
0 1 1 0 0 0 0 0 0 0 0 0 0 0 0 0 0 1 1 1 0 0 0 1 1 1 1 1 1 1 0 0 0 0 1 1 1 1 1 1 1 1 1 1 1 1 1 1 1
1 1 0 0 0 0 0 0 0 0 0 0 0 0 0 0 1 1 1 1 0 0 0 1 1 1 1 1 1 1 0 0 0 0 0 1 1 1 1 1 1 1 1 1 1 1 1 1 1
1 1 0 0 0 0 0 0 0 0 0 0 0 0 0 1 1 1 1 0 0 0 0 1 1 1 1 1 1 0 0 0 0 0 0 0 1 1 1 1 1 1 1 1 1 1 1 1 1
1 0 0 0 0 0 0 0 0 0 0 0 0 0 1 1 1 1 0 0 0 0 0 1 1 1 1 1 0 0 0 0 0 0 0 0 0 0 1 1 1 1 1 1 2 2 1 1 1
1 0 0 0 0 0 0 0 0 0 0 0 1 1 1 1 1 1 0 0 0 0 0 1 1 1 1 1 0 0 0 0 0 0 0 0 0 1 1 1 1 1 1 1 2 1 1 1 1
1 0 0 0 0 0 0 0 0 0 0 1 1 1 1 2 1 1 1 1 1 0 0 0 1 1 1 1 0 0 0 0 0 0 0 0 0 0 1 1 1 1 1 1 1 1 1 1 1
1 0 0 0 0 0 0 0 0 0 1 1 1 1 2 2 1 1 1 1 1 1 0 0 0 1 1 1 0 0 0 0 0 0 0 0 0 0 1 1 1 1 1 1 1 1 1 1 0
1 0 0 0 0 0 0 0 0 0 1 1 1 2 2 2 1 1 1 1 1 1 0 0 0 0 0 0 0 0 0 0 0 0 0 0 0 0 1 1 1 1 1 1 1 1 1 1 0
0 0 0 0 0 0 0 0 0 0 1 1 2 2 2 1 1 1 1 1 0 0 0 0 0 0 0 0 0 0 0 0 0 0 0 0 0 0 1 1 1 1 1 1 1 1 1 1 0
0 0 0 0 0 0 0 0 0 0 1 1 2 2 2 2 1 1 1 1 0 0 0 0 0 0 0 0 0 0 0 0 0 0 0 0 0 0 0 1 1 1 1 1 1 0 0 0 0
0 0 0 0 0 0 0 0 0 0 1 1 2 2 2 2 2 1 1 1 1 0 0 0 0 0 0 0 0 0 0 0 0 0 0 0 0 0 0 0 1 1 1 1 0 0 0 0 0
0 0 0 0 0 0 0 0 0 1 1 1 1 2 2 2 2 2 2 1 1 0 1 1 1 0 0 0 0 0 0 0 0 0 0 0 0 0 0 0 1 1 0 0 0 0 0 0 0
0 0 0 0 0 0 0 0 1 1 1 1 1 2 2 2 2 2 2 2 1 1 1 1 1 1 0 0 0 0 0 0 0 0 0 0 0 0 0 0 0 0 0 0 0 0 0 0 0
0 0 0 1 1 0 0 0 1 1 1 1 1 1 2 2 2 2 3 2 2 1 1 1 1 1 0 0 0 0 0 0 0 0 0 0 0 0 0 0 0 0 0 0 0 0 0 0 0
0 0 0 1 1 1 0 1 1 1 1 1 1 1 1 1 1 2 2 2 2 1 1 1 1 1 1 1 0 0 0 0 0 0 0 0 0 0 0 0 0 0 0 0 0 0 0 0 0
0 0 0 0 1 1 1 1 1 1 1 1 1 1 1 1 1 1 2 2 2 2 2 1 1 1 1 1 1 0 0 0 0 0 0 0 0 0 0 0 0 0 0 0 0 0 0 0 0
0 0 0 0 1 1 1 1 1 1 1 1 1 1 1 1 1 2 2 3 3 2 2 2 2 1 1 1 1 0 0 0 0 0 0 0 0 0 0 0 0 0 0 1 1 1 1 1 0
0 0 0 1 0 0 1 1 1 1 1 1 1 1 1 1 1 3 3 3 3 2 2 2 2 2 1 1 1 1 1 1 0 0 0 0 0 0 0 0 0 0 1 1 1 1 1 1 1
0 0 0 0 0 0 0 0 0 1 1 1 1 1 1 1 2 3 5 4 3 2 2 2 2 2 1 1 1 1 1 1 1 1 0 0 0 0 0 0 0 0 1 1 1 1 1 1 1
0 0 0 0 0 0 0 0 0 0 1 1 1 1 1 1 2 4 5 5 3 2 2 2 2 2 1 1 1 1 1 1 1 1 1 0 0 0 0 1 1 1 1 1 1 1 1 1 1
0 0 0 0 0 0 0 0 0 0 0 1 1 1 1 1 2 4 6 5 3 2 2 2 2 2 1 1 1 1 1 1 1 1 1 1 1 1 1 1 1 1 1 1 1 1 1 1 1
0 0 0 0 0 0 0 0 0 0 0 1 1 1 1 1 3 5 6 5 3 2 2 2 2 2 2 1 1 1 1 1 1 1 1 1 1 1 1 1 1 1 1 1 1 1 2 2 2
0 0 0 0 0 0 0 0 0 1 1 1 1 1 1 1 3 6 7 6 4 3 3 3 2 2 2 2 1 1 1 1 2 2 2 2 1 1 1 1 2 2 2 2 3 2 2 2 2
0 0 0 0 0 0 0 0 0 1 1 1 1 1 2 3 4 6 7 6 5 4 4 3 3 2 2 2 2 2 2 2 2 2 2 2 2 2 2 2 2 3 3 4 4 4 3 3 3
0 0 0 0 0 0 0 0 0 1 1 2 2 2 3 4 5 6 6 6 6 6 5 4 3 3 2 2 2 2 2 3 3 2 2 2 2 2 2 2 3 4 4 5 5 5 4 4 4
0 0 0 0 0 0 0 0 0 1 1 2 2 3 3 4 4 4 5 5 7 7 7 5 4 3 3 3 3 3 3 3 3 3 2 2 2 2 2 3 4 5 6 6 6 6 6 5 4
0 0 0 0 0 0 0 0 0 1 1 2 2 2 2 2 2 3 4 6 8 8 7 6 4 3 3 3 3 3 3 3 3 3 2 2 2 2 2 3 4 6 7 7 8 7 7 6 6
Wind_Speed
7 5 2 1 3 4 2 2 1 2 3 2 4 5 5 3 2 2 1 5 7 6 6 8 11 12 12 12 12 12 12 13 13 13 12 12 12 12 12 12 13 13 13 14 14 14 14 14 14
5 4 1 2 4 3 2 2 2 2 4 4 5 5 5 4 4 5 3 4 7 6 5 7 11 12 12 11 11 11 11 12 12 12 12 11 11 11 11 12 12 12 13 14 14 14 14 14 13
6 3 1 3 3 2 1 1 4 4 4 3 4 5 4 3 4 3 3 7 7 6 5 7 12 12 11 11 11 11 10 11 11 11 11 11 11 10 10 11 12 12 13 13 13 13 13 13 13
3 1 2 4 2 1 2 3 4 5 4 5 4 5 4 3 3 5 7 8 7 5 5 7 11 11 11 11 10 10 10 10 10 10 10 10 10 10 10 10 11 11 12 12 12 12 12 12 11
1 2 4 3 2 1 2 4 3 4 3 4 5 5 4 4 8 10 9 8 7 5 4 5 10 11 11 10 10 10 10 9 9 9 8 8 8 9 9 9 10 10 11 11 11 11 11 11 10
2 3 4 2 3 2 2 3 4 5 4 4 5 5 3 3 8 8 8 6 5 5 4 4 9 10 10 10 10 9 9 9 8 8 8 8 7 8 9 10 10 10 10 10 10 10 10 9 9
3 3 2 0 1 1 2 2 3 4 4 4 5 5 3 3 6 7 7 6 5 4 4 3 3 6 8 9 9 9 9 8 8 8 7 7 7 7 8 9 9 10 10 10 9 9 8 8 7
3 4 2 1 1 1 3 3 3 4 4 5 4 7 5 6 8 8 7 5 4 4 3 3 3 3 3 4 7 7 8 8 7 7 6 6 5 5 8 8 8 9 9 9 9 8 7 6 6
3 4 1 3 3 2 3 3 3 3 5 3 3 4 7 13 12 9 6 4 3 3 2 2 2 2 2 2 4 5 6 6 5 4 5 4 2 3 5 7 7 8 8 8 7 7 6 5 5
3 2 4 4 5 4 4 4 5 4 4 3 5 8 12 13 12 10 8 7 5 4 3 2 2 2 2 2 2 1 2 2 2 2 2 2 3 3 4 5 6 6 6 6 5 5 4 3 2
3 4 4 2 3 5 5 4 3 7 3 6 10 14 14 12 10 10 8 7 6 5 4 3 3 2 2 1 2 1 1 2 2 2 3 2 2 2 3 2 2 2 3 2 2 2 2 2 2
3 4 3 1 3 5 5 4 3 4 4 7 13 16 15 13 11 10 9 8 6 5 5 4 3 2 2 2 1 1 1 1 1 2 2 2 2 2 2 1 1 1 1 2 1 1 1 1 1
3 2 1 1 4 5 6 4 3 1 4 11 14 14 13 12 9 7 7 6 6 6 6 5 4 3 3 2 1 2 2 1 2 2 2 3 2 2 1 1 1 1 1 1 1 1 1 1 1
1 0 1 1 3 3 6 3 3 2 8 12 13 12 12 11 10 7 7 7 7 7 6 5 5 4 3 3 2 2 2 1 1 2 3 3 3 2 2 1 1 1 1 1 1 1 1 0 0
1 3 3 2 3 2 6 2 2 5 10 12 12 11 11 9 9 9 10 9 9 8 7 6 6 5 4 4 3 2 2 2 2 2 3 3 3 3 2 2 1 1 1 1 1 1 1 0 0
3 4 2 2 2 2 5 4 3 7 12 11 10 10 9 8 9 9 9 8 8 7 7 7 7 6 5 4 3 2 2 2 2 2 2 3 3 3 3 2 2 1 1 1 1 1 1 0 0
4 1 2 3 1 3 4 4 3 8 11 11 10 10 9 8 8 8 8 8 8 8 7 7 6 6 5 4 3 2 2 2 2 2 2 2 3 4 3 2 2 2 1 1 1 1 1 1 0
2 1 2 3 2 3 3 4 3 9 10 10 9 9 9 10 10 9 8 8 7 7 7 7 6 6 5 3 2 2 1 1 1 2 2 3 3 3 3 2 2 2 2 1 1 2 1 1 1
3 3 4 5 3 3 4 4 5 9 9 10 10 10 10 10 8 7 8 8 7 7 7 7 7 6 5 3 3 3 2 2 1 2 3 3 3 3 3 2 2 3 3 3 3 2 2 1 1
3 2 3 3 1 3 2 4 4 9 13 12 13 12 12 9 7 8 9 8 9 9 8 8 8 7 6 4 3 2 2 2 2 1 2 2 3 3 3 3 3 3 2 2 3 3 2 1 1
3 5 4 3 1 2 2 4 3 4 7 7 8 8 9 11 11 10 10 10 9 9 10 9 8 7 6 5 3 2 2 2 1 1 1 2 3 3 3 3 3 3 3 3 3 3 4 3 1
4 5 4 3 3 2 2 3 6 5 6 10 11 9 10 10 10 10 10 10 11 11 10 8 7 7 6 6 5 5 4 4 3 2 2 2 2 2 3 3 3 3 2 3 3 3 3 3 2
5 1 2 2 3 1 0 2 8 1 6 12 13 13 12 12 12 12 13 12 11 11 10 8 7 7 6 6 6 6 4 3 2 2 2 1 1 2 2 3 3 3 3 3 3 3 3 3 3
3 6 6 6 5 1 4 4 7 6 9 8 11 13 13 12 13 12 12 10 9 9 9 8 8 7 6 7 6 6 6 5 4 3 2 1 1 1 2 2 2 3 3 3 3 3 4 3 3
5 6 4 4 3 6 2 4 10 7 6 8 10 11 11 11 11 12 12 12 11 11 11 10 10 8 7 8 7 7 7 6 6 5 4 3 2 2 3 3 2 2 3 3 3 3 3 4 4
4 8 8 6 6 5 1 6 9 5 4 5 6 6 6 7 9 11 13 13 13 13 12 11 11 9 9 8 8 6 6 5 4 5 4 4 3 3 3 3 2 3 3 3 2 2 3 3 4
5 4 6 7 2 1 5 7 9 3 3 2 2 2 4 7 9 10 11 12 13 13 13 13 12 10 9 9 7 6 6 6 5 4 4 3 3 3 3 3 2 2 2 2 2 2 3 3 3
4 7 6 6 5 4 5 5 6 5 4 3 1 2 4 5 7 8 9 11 12 11 11 10 10 10 9 9 8 7 6 6 5 5 5 4 4 3 2 2 2 2 2 2 2 2 2 2 3
3 4 5 4 5 6 4 8 7 8 6 5 5 4 4 4 6 8 8 9 9 8 9 9 9 8 7 8 7 6 6 6 5 5 5 4 3 4 3 3 3 3 3 3 2 2 2 3 2
4 6 7 5 4 4 4 10 5 5 5 4 4 3 2 3 4 6 7 7 7 8 9 9 9 9 8 7 7 6 6 5 5 5 4 4 4 4 4 3 3 3 3 3 3 3 3 3 3
Wind_Direction
152 145 151 129 50 45 28 360 85 78 63 57 84 82 91 76 89 115 91 121 119 121 129 136 131 127 125 121 119 117 117 116 115 115 117 118 119 119 120 123 124 125 125 125 124 121 121 121 120
149 161 184 57 70 52 354 5 67 80 121 109 76 70 70 62 65 100 112 123 122 129 129 135 131 128 126 123 122 121 120 118 117 117 117 118 120 121 121 122 125 125 125 127 126 125 123 123 123
167 196 87 66 77 138 160 77 109 97 101 83 73 58 67 85 106 120 130 126 116 122 123 137 135 133 131 128 125 124 122 120 120 120 119 119 121 124 123 123 126 127 128 129 129 127 126 126 126
162 77 54 59 39 244 175 157 131 115 73 60 87 69 58 63 120 125 123 121 117 119 128 140 139 136 134 132 129 126 125 122 121 120 121 122 122 125 126 126 129 130 131 131 131 129 129 129 129
96 71 48 31 355 350 119 146 132 105 87 76 86 83 51 32 96 113 120 124 123 119 124 135 138 136 134 133 132 131 128 126 125 124 123 124 125 128 131 131 132 134 133 133 132 133 133 132 133
61 59 60 21 351 30 96 126 109 94 96 98 96 94 66 96 111 121 120 120 120 124 127 130 139 138 138 138 137 135 134 132 129 128 127 127 127 130 136 136 136 136 136 136 135 135 135 138 137
96 78 79 18 2 50 152 126 121 121 116 127 119 100 106 131 128 122 113 109 107 111 116 115 126 136 142 140 139 140 138 135 131 129 128 129 133 137 141 142 141 140 140 140 139 139 139 140 140
125 96 56 339 177 226 156 131 125 122 117 118 115 132 161 165 134 115 103 102 105 104 108 109 100 105 119 132 144 144 141 136 133 133 131 132 136 141 146 143 144 144 145 145 143 143 141 140 140
111 75 151 212 185 209 157 131 125 102 112 115 108 138 146 137 131 123 117 112 119 123 110 116 111 110 110 124 153 146 143 140 137 136 133 119 67 89 122 135 143 146 148 147 144 140 138 137 137
99 124 229 211 184 173 162 147 145 120 116 102 88 100 124 136 142 147 153 157 161 163 157 143 142 141 136 155 116 90 104 109 102 92 95 84 76 84 106 121 135 139 139 138 136 130 126 115 119
153 199 239 238 197 151 144 140 131 132 167 181 156 144 143 148 155 163 170 172 176 173 171 165 159 149 140 130 115 93 87 92 99 109 106 98 87 85 83 84 101 103 115 100 96 93 98 109 128
180 248 234 225 150 138 139 133 125 165 206 165 153 148 151 159 169 175 179 180 173 172 181 171 164 154 144 130 119 119 117 122 133 136 131 119 107 96 95 99 94 88 94 101 90 92 103 107 129
206 269 294 225 123 127 111 118 131 157 116 127 139 146 157 168 176 182 180 176 174 182 185 177 168 168 157 142 158 148 152 159 161 155 152 143 136 135 125 120 114 116 113 120 120 114 114 106 127
236 73 22 71 108 123 118 111 111 158 133 134 148 160 170 177 178 174 176 182 187 191 190 179 176 178 163 160 167 163 161 161 147 159 168 159 152 149 143 137 132 133 131 137 142 150 122 115 142
54 49 25 42 99 119 106 64 193 160 144 149 162 169 176 183 183 187 187 188 191 192 186 181 183 177 172 174 179 173 167 157 158 168 170 162 159 158 154 149 159 171 122 116 112 89 94 129 134
50 55 14 305 98 118 124 230 213 155 152 161 169 176 181 189 195 196 189 185 188 185 182 186 189 180 182 181 177 167 164 168 174 166 160 167 170 163 156 161 180 168 126 123 131 116 105 109 134
35 58 265 292 180 139 158 230 205 163 164 172 177 184 188 192 200 199 193 186 183 182 180 182 184 180 184 180 168 161 157 168 170 160 162 173 173 165 162 177 184 161 146 150 168 135 147 162 173
228 234 257 250 227 146 185 236 193 178 179 184 182 188 194 199 206 197 191 186 178 176 177 179 181 181 171 157 141 127 136 156 158 169 178 177 172 167 168 180 179 162 157 165 164 152 148 158 165
182 195 245 253 218 160 207 229 206 183 189 192 192 194 201 208 205 190 184 182 174 174 176 181 181 180 166 161 165 166 185 183 177 184 185 181 178 172 173 188 177 172 175 183 171 156 159 180 137
186 216 251 279 200 164 224 261 224 194 204 201 199 201 202 202 197 190 184 181 182 183 183 185 186 182 180 181 175 172 162 169 179 179 173 184 183 179 184 185 189 183 178 178 175 164 160 186 168
217 199 215 208 18 37 87 317 242 222 216 218 216 208 203 202 201 194 188 187 186 189 191 193 192 186 182 172 146 126 107 95 126 164 190 196 181 178 179 183 185 183 183 194 196 185 181 191 197
250 225 195 170 123 272 145 263 271 220 216 219 221 214 209 208 202 195 190 190 191 195 193 192 187 185 182 169 164 161 166 179 191 184 184 179 172 177 183 186 187 188 189 196 206 196 191 183 197
218 183 145 135 142 70 349 195 280 203 227 230 223 219 216 207 200 195 194 194 193 190 187 186 182 185 180 172 173 171 177 183 162 146 153 169 171 186 190 185 182 191 197 203 201 187 192 196 198
143 69 55 51 75 250 225 183 267 226 219 228 222 221 218 208 203 198 195 188 186 182 181 179 179 187 182 176 177 178 177 171 158 164 171 180 181 199 207 190 189 199 202 206 207 200 195 201 201
97 92 37 358 4 248 236 196 247 247 230 222 224 223 219 207 200 195 190 186 184 183 184 181 180 187 184 180 185 187 183 178 181 183 187 187 198 213 221 207 201 207 211 209 201 198 206 204 202
174 142 159 194 219 264 259 227 252 264 255 231 227 221 210 203 197 195 192 187 185 186 185 182 184 188 186 186 191 189 185 187 192 190 186 193 204 216 214 203 206 215 212 209 197 199 212 207 211
150 180 167 141 168 244 268 278 299 294 304 283 249 206 205 202 196 192 189 186 183 185 187 185 184 186 187 188 187 188 189 191 191 186 186 193 202 206 197 193 195 211 213 204 194 209 217 206 215
140 142 105 126 155 234 275 262 247 262 264 277 268 231 226 202 192 188 187 187 186 186 183 179 182 186 187 188 191 192 191 192 189 182 191 197 202 201 186 190 197 205 213 204 197 214 222 210 225
108 104 110 123 155 165 240 263 227 217 220 225 236 231 215 197 194 189 188 186 181 174 170 173 176 178 183 186 185 183 184 185 182 187 194 195 194 190 195 199 204 202 206 206 201 213 216 215 232
163 163 147 158 220 185 194 261 266 222 222 221 238 242 227 198 193 181 170 167 167 170 170 171 175 183 188 183 178 181 178 174 180 189 192 188 190 191 194 195 200 209 213 209 208 221 226 220 227